This is the latest recevied weather packets stored in our database for station/object KE1THD. If no packets are shown the sender has not sent any weather packets the latest 10 day(s).
| Time | Temp. | Humidity | Pressure | Rain* | Wind** | Luminosity | Snow |
|---|---|---|---|---|---|---|---|
| 1777989020 | 10.56° C | 48% | 1009.7 hPa | 0 mm | - | 291 W/m² | - |
| 1777988716 | 10.56° C | 48% | 1009.9 hPa | 0 mm | - | 273 W/m² | - |
| 1777988414 | 10.56° C | 50% | 1009.9 hPa | 0 mm | - | 329 W/m² | - |
| 1777988111 | 10° C | 51% | 1010.2 hPa | 0 mm | - | 278 W/m² | - |
| 1777987806 | 10° C | 49% | 1010 hPa | 0 mm | - | 208 W/m² | - |
| 1777987503 | 10° C | 53% | 1010.2 hPa | 0 mm | - | 111 W/m² | - |
| 1777987201 | 10° C | 51% | 1010.3 hPa | 0 mm | - | 143 W/m² | - |
| 1777986897 | 10° C | 50% | 1010.7 hPa | 0 mm | - | 313 W/m² | - |
| 1777986595 | 10° C | 52% | 1010.3 hPa | 0 mm | - | 254 W/m² | - |
| 1777986293 | 10° C | 53% | 1010.3 hPa | 0 mm | - | 157 W/m² | - |
| 1777985991 | 10° C | 53% | 1010.2 hPa | 0 mm | - | 142 W/m² | - |
| 1777985688 | 9.44° C | 53% | 1010.4 hPa | 0 mm | - | 116 W/m² | - |
| 1777985384 | 9.44° C | 52% | 1010.7 hPa | 0 mm | - | 126 W/m² | - |
| 1777985081 | 9.44° C | 53% | 1010.8 hPa | 0 mm | - | 91 W/m² | - |
| 1777984777 | 9.44° C | 54% | 1010.9 hPa | 0 mm | - | 68 W/m² | - |
| 1777984474 | 9.44° C | 53% | 1010.8 hPa | 0 mm | - | 79 W/m² | - |
| 1777984169 | 9.44° C | 54% | 1010.8 hPa | 0 mm | - | 81 W/m² | - |
| 1777983867 | 9.44° C | 54% | 1010.5 hPa | 0 mm | - | 75 W/m² | - |
| 1777983564 | 8.89° C | 54% | 1010.9 hPa | 0 mm | - | 62 W/m² | - |
| 1777983261 | 8.89° C | 55% | 1010.6 hPa | 0 mm | - | 61 W/m² | - |
| 1777982957 | 8.89° C | 54% | 1010.8 hPa | 0 mm | - | 67 W/m² | - |
| 1777982653 | 8.89° C | 54% | 1010.7 hPa | 0 mm | - | 61 W/m² | - |
| 1777982352 | 8.89° C | 56% | 1010.6 hPa | 0 mm | - | 53 W/m² | - |
| 1777982049 | 8.89° C | 56% | 1010.5 hPa | 0 mm | - | 46 W/m² | - |
| 1777981747 | 8.89° C | 57% | 1010.5 hPa | 0 mm | - | 33 W/m² | - |
* Rain latest hour (hover to see other rain measurements)
** Current wind speed in m/s (hover to see current wind gust speed)